• In Germany
  • List of Countries
  • For 7 days
  • Water Temperature
  • Satellite Maps
  • Weather Map
  • Weather Widgets
  • user-avatar
    Login

    Hourly Weather Robertsport

    Today, 11 December, Monday

    Time Temperature Precipitation Wind Pressure Humidity
    00:00 +25°C° 0 mm 1 mps 755 mmHg 90%
    01:00 +25°C° 0 mm 1 mps 755 mmHg 91%
    02:00 +25°C° 0 mm 1 mps 755 mmHg 93%
    03:00 +24°C° 0 mm 1 mps 755 mmHg 93%
    04:00 +24°C° 0 mm 1 mps 755 mmHg 94%
    05:00 +24°C° 0 mm 1 mps 755 mmHg 93%
    06:00 +25°C° 0 mm 1 mps 755 mmHg 86%
    07:00 +27°C° 0 mm 1 mps 755 mmHg 79%
    08:00 +29°C° 0 mm 1 mps 756 mmHg 72%
    09:00 +31°C° 0 mm 1 mps 755 mmHg 62%
    10:00 +34°C° 0 mm 1 mps 755 mmHg 51%
    11:00 +36°C° 0 mm 1 mps 755 mmHg 35%
    12:00 +36°C° 0 mm 1 mps 755 mmHg 35%
    13:00 +37°C° 0 mm 2 mps 754 mmHg 35%
    14:00 +37°C° 0 mm 2 mps 754 mmHg 35%
    15:00 +35°C° 0 mm 3 mps 754 mmHg 44%
    16:00 +33°C° 0 mm 3 mps 754 mmHg 53%
    17:00 +30°C° 0 mm 3 mps 754 mmHg 62%
    18:00 +29°C° 0 mm 3 mps 754 mmHg 68%
    19:00 +28°C° 0 mm 2 mps 755 mmHg 75%
    20:00 +26°C° 0 mm 2 mps 755 mmHg 82%
    21:00 +26°C° 0 mm 2 mps 755 mmHg 84%
    22:00 +26°C° 0 mm 2 mps 755 mmHg 85%
    23:00 +26°C° 0 mm 2 mps 755 mmHg 86%

    Tomorrow, 12 December, Tuesday

    Time Temperature Precipitation Wind Pressure Humidity
    00:00 +25°C° 0 mm 1 mps 755 mmHg 88%
    01:00 +25°C° 0 mm 1 mps 754 mmHg 89%
    02:00 +25°C° 0 mm 1 mps 754 mmHg 90%
    03:00 +25°C° 0 mm 1 mps 754 mmHg 92%
    04:00 +24°C° 0 mm 1 mps 754 mmHg 93%
    05:00 +24°C° 0 mm 1 mps 755 mmHg 94%
    06:00 +26°C° 0 mm 1 mps 755 mmHg 86%
    07:00 +27°C° 0 mm 1 mps 755 mmHg 79%
    08:00 +29°C° 0 mm 1 mps 756 mmHg 72%
    09:00 +31°C° 0 mm 1 mps 756 mmHg 63%
    10:00 +33°C° 0 mm 1 mps 756 mmHg 54%
    11:00 +35°C° 0 mm 1 mps 756 mmHg 45%
    12:00 +36°C° 0 mm 2 mps 755 mmHg 44%
    13:00 +36°C° 0 mm 2 mps 754 mmHg 43%
    14:00 +36°C° 0 mm 3 mps 754 mmHg 42%
    15:00 +35°C° 0 mm 3 mps 754 mmHg 50%
    16:00 +33°C° 0 mm 3 mps 754 mmHg 57%
    17:00 +30°C° 0 mm 3 mps 754 mmHg 65%
    18:00 +29°C° 0 mm 3 mps 754 mmHg 71%
    19:00 +28°C° 0 mm 2 mps 755 mmHg 77%
    20:00 +27°C° 0 mm 2 mps 755 mmHg 83%
    21:00 +27°C° 0 mm 2 mps 755 mmHg 85%
    22:00 +26°C° 0 mm 2 mps 756 mmHg 86%
    23:00 +26°C° 0 mm 2 mps 756 mmHg 87%

    Day after tomorrow, 13 December, Wednesday

    Time Temperature Precipitation Wind Pressure Humidity
    00:00 +26°C° 0 mm 2 mps 755 mmHg 88%
    01:00 +26°C° 0 mm 1 mps 755 mmHg 89%
    02:00 +25°C° 0 mm 1 mps 755 mmHg 90%
    03:00 +25°C° 0 mm 1 mps 755 mmHg 90%
    04:00 +25°C° 0 mm 1 mps 755 mmHg 91%
    05:00 +25°C° 0 mm 1 mps 755 mmHg 91%
    06:00 +26°C° 0 mm 1 mps 755 mmHg 86%
    07:00 +27°C° 0 mm 1 mps 755 mmHg 82%
    08:00 +28°C° 0 mm 1 mps 756 mmHg 77%
    09:00 +30°C° 0 mm 2 mps 756 mmHg 68%
    10:00 +32°C° 0 mm 2 mps 755 mmHg 60%
    11:00 +35°C° 0 mm 2 mps 755 mmHg 51%
    12:00 +35°C° 0 mm 2 mps 755 mmHg 50%
    13:00 +35°C° 0 mm 3 mps 754 mmHg 49%
    14:00 +35°C° 0 mm 3 mps 753 mmHg 49%
    15:00 +34°C° 0 mm 3 mps 753 mmHg 56%
    16:00 +33°C° 0 mm 3 mps 754 mmHg 62%
    17:00 +30°C° 0 mm 3 mps 754 mmHg 69%
    18:00 +29°C° 0 mm 3 mps 754 mmHg 74%
    19:00 +28°C° 0 mm 3 mps 755 mmHg 79%
    20:00 +27°C° 0 mm 3 mps 756 mmHg 84%
    21:00 +27°C° 0 mm 3 mps 756 mmHg 86%
    22:00 +27°C° 0 mm 2 mps 756 mmHg 87%
    23:00 +26°C° 0 mm 2 mps 756 mmHg 88%

    14 December, Thursday

    Time Temperature Precipitation Wind Pressure Humidity
    00:00 +26°C° 0 mm 2 mps 755 mmHg 89%
    01:00 +26°C° 0 mm 2 mps 755 mmHg 90%
    02:00 +26°C° 0 mm 2 mps 754 mmHg 91%
    03:00 +26°C° 0 mm 2 mps 755 mmHg 91%
    04:00 +26°C° 0 mm 1 mps 755 mmHg 92%
    05:00 +25°C° 0 mm 1 mps 755 mmHg 92%
    06:00 +27°C° 0 mm 1 mps 755 mmHg 86%
    07:00 +28°C° 0 mm 1 mps 756 mmHg 79%
    08:00 +30°C° 0 mm 1 mps 756 mmHg 72%
    09:00 +31°C° 0.1 mm 1 mps 756 mmHg 68%
    10:00 +32°C° 0.1 mm 2 mps 756 mmHg 64%
    11:00 +34°C° 0.1 mm 2 mps 756 mmHg 59%
    12:00 +32°C° 0.7 mm 2 mps 755 mmHg 62%
    13:00 +33°C° 0.7 mm 3 mps 754 mmHg 65%
    14:00 +31°C° 0.7 mm 3 mps 754 mmHg 68%
    15:00 +31°C° 0.2 mm 3 mps 754 mmHg 71%
    16:00 +30°C° 0.2 mm 2 mps 754 mmHg 74%
    17:00 +29°C° 0.2 mm 2 mps 754 mmHg 78%
    18:00 +28°C° 0 mm 2 mps 755 mmHg 81%
    19:00 +27°C° 0 mm 2 mps 755 mmHg 85%
    20:00 +27°C° 0 mm 1 mps 756 mmHg 88%
    21:00 +26°C° 0 mm 1 mps 756 mmHg 89%
    22:00 +26°C° 0 mm 1 mps 756 mmHg 90%
    23:00 +26°C° 0 mm 1 mps 756 mmHg 90%

    15 December, Friday

    Time Temperature Precipitation Wind Pressure Humidity
    00:00 +26°C° 0 mm 1 mps 755 mmHg 91%
    01:00 +26°C° 0 mm 1 mps 755 mmHg 92%
    02:00 +25°C° 0 mm 1 mps 755 mmHg 92%
    03:00 +25°C° 0.1 mm 1 mps 755 mmHg 93%
    04:00 +25°C° 0.1 mm 1 mps 755 mmHg 93%
    05:00 +25°C° 0.1 mm 1 mps 755 mmHg 94%
    06:00 +26°C° 0.5 mm 1 mps 756 mmHg 89%
    07:00 +27°C° 0.5 mm 1 mps 756 mmHg 84%
    08:00 +29°C° 0.5 mm 1 mps 757 mmHg 79%
    09:00 +30°C° 0.2 mm 1 mps 757 mmHg 72%
    10:00 +32°C° 0.2 mm 1 mps 756 mmHg 65%
    11:00 +34°C° 0.2 mm 1 mps 756 mmHg 58%
    12:00 +34°C° 0.7 mm 2 mps 755 mmHg 61%
    13:00 +32°C° 0.7 mm 2 mps 755 mmHg 64%
    14:00 +31°C° 0.7 mm 2 mps 754 mmHg 67%
    15:00 +30°C° 0.6 mm 2 mps 754 mmHg 72%
    16:00 +29°C° 0.6 mm 2 mps 754 mmHg 77%
    17:00 +29°C° 0.6 mm 2 mps 754 mmHg 82%
    18:00 +28°C° 0 mm 2 mps 755 mmHg 85%
    19:00 +27°C° 0 mm 2 mps 755 mmHg 88%
    20:00 +26°C° 0 mm 2 mps 756 mmHg 90%
    21:00 +26°C° 0.1 mm 2 mps 756 mmHg 91%
    22:00 +26°C° 0.1 mm 2 mps 756 mmHg 91%
    23:00 +26°C° 0.1 mm 2 mps 756 mmHg 92%

    16 December, Saturday

    Time Temperature Precipitation Wind Pressure Humidity
    00:00 +26°C° 0.7 mm 2 mps 756 mmHg 93%
    01:00 +25°C° 0.7 mm 2 mps 755 mmHg 93%
    02:00 +25°C° 0.7 mm 1 mps 755 mmHg 94%
    03:00 +25°C° 0.4 mm 1 mps 755 mmHg 94%
    04:00 +25°C° 0.4 mm 1 mps 755 mmHg 94%
    05:00 +25°C° 0.4 mm 1 mps 756 mmHg 94%
    06:00 +26°C° 0 mm 1 mps 756 mmHg 90%
    07:00 +27°C° 0 mm 1 mps 757 mmHg 85%
    08:00 +26°C° 0 mm 0 mps 757 mmHg 81%
    09:00 +31°C° 0 mm 1 mps 757 mmHg 71%
    10:00 +33°C° 0 mm 1 mps 756 mmHg 61%
    11:00 +35°C° 0 mm 1 mps 756 mmHg 52%
    12:00 +35°C° 0.1 mm 2 mps 756 mmHg 54%
    13:00 +34°C° 0.1 mm 2 mps 755 mmHg 57%
    14:00 +34°C° 0.1 mm 3 mps 754 mmHg 59%
    15:00 +31°C° 0.5 mm 3 mps 754 mmHg 67%
    16:00 +30°C° 0.5 mm 3 mps 754 mmHg 74%
    17:00 +28°C° 0.5 mm 3 mps 755 mmHg 81%
    18:00 +28°C° 0.1 mm 3 mps 755 mmHg 84%
    19:00 +27°C° 0.1 mm 3 mps 756 mmHg 87%
    20:00 +26°C° 0.1 mm 3 mps 757 mmHg 90%
    21:00 +26°C° 0 mm 3 mps 757 mmHg 91%
    22:00 +26°C° 0 mm 2 mps 757 mmHg 92%
    23:00 +26°C° 0 mm 2 mps 757 mmHg 93%
    Show more